Location: Basse Occidentale du Courleau
(48.3833°N, 4.8333°W)
Time: 15:44:29
(UTC+00:00)

Daily predictions for brighter satellites

Satellite Brightness Start Highest point End
(mag) Time Altitude Azimuth Time Altitude Azimuth Time Altitude Azimuth
SL-16 R/B 2.6 20:51:47 10° SW 20:57:27 74° WNW 21:03:09 10° NNE
ERS-1 Rocket 3.9 20:57:43 10° SE 21:02:17 36° ENE 21:06:52 10° N
GEOS 3 Rocket 4.1 20:59:39 10° NE 21:04:46 42° ESE 21:09:50 10° SSW
Cosmos 2278 Rocket 3.8 21:02:22 10° N 21:06:57 24° NE 21:11:30 10° E
USA 215 3.9 21:02:39 10° ENE 21:08:28 33° SE 21:14:14 10° SSW
ATLAS 5 CENTAUR R/B 1.7 21:06:13 10° SSW 21:10:12 49° ESE 21:14:40 10° NE
USA 245 3.2 21:09:02 10° SSE 21:12:20 70° ENE 21:16:32 10° N
Cosmos 1844 Rocket 2.7 21:06:44 10° NNW 21:12:21 85° ENE 21:17:55 10° SSE
Cosmos 1400 Rocket 2.9 21:09:32 10° N 21:13:31 60° ENE 21:17:23 10° SSE
Cosmos 1758 Rocket 3.7 21:10:29 10° S 21:14:56 65° E 21:19:24 10° NNE
Meteor 2-10 Rocket 3.8 21:11:32 10° NNW 21:16:36 68° W 21:21:49 10° S
Lacrosse 5 rocket 3.5 21:14:17 10° WNW 21:18:04 29° NNW 21:21:40 10° NE
SPOT 5 3.6 21:14:12 10° SE 21:18:54 42° ENE 21:23:25 10° N
BREEZE-M DEB (TANK) 4.2 21:15:17 10° W 21:19:01 81° N 21:32:44 10° E
Spot 2 Rocket 3.6 21:17:36 10° SSE 21:22:42 89° WSW 21:27:50 10° NNW
BREEZE M DEB (TANK) 1.9 21:22:58 10° WNW 21:25:59 55° SSW 21:27:38 14° SE
Landsat 7 3.9 21:22:26 10° SSE 21:27:12 87° WSW 21:32:00 10° NNW
Cosmos 2181 Rocket 4.3 21:22:07 10° N 21:28:22 54° ENE 21:34:15 11° SSE
Cosmos 1745 Rocket 4.3 21:26:13 10° SSW 21:32:25 72° WNW 21:38:42 10° N
SPOT 1/Viking Rocket 3.6 21:32:08 10° SSE 21:37:18 86° WSW 21:42:30 10° NNW
Cosmos 1953 Rocket 3.6 21:33:48 10° S 21:38:03 61° E 21:42:20 10° NNE
USA 267 3.7 21:35:37 10° ESE 21:42:04 62° NNE 21:48:32 10° NW
Cosmos 1328 3.9 21:38:51 10° SSW 21:42:49 79° W 21:46:49 10° N
SAR-Lupe-2 3.5 21:40:18 10° NNE 21:43:54 73° ESE 21:47:28 10° S
Cosmos 2084 3.8 21:39:51 10° NW 21:44:17 61° NE 21:48:05 14° ESE
Cosmos 2322 Rocket 3.6 21:39:34 10° WSW 21:44:51 42° NW 21:50:12 10° NNE
Cosmos 1842 Rocket 4.4 21:41:52 10° N 21:45:55 36° ENE 21:49:02 15° SE
Cosmos 1455 3.7 21:43:24 10° NNW 21:46:54 33° W 21:50:22 10° SSW
Cosmos 1825 Rocket 4.0 21:49:22 10° SSW 21:53:46 64° WNW 21:58:13 10° N
ATLAS CENTAUR R/B 1.1 21:52:10 10° NW 21:55:53 72° NE 21:58:26 18° SE
Cosmos 1703 4.2 21:52:50 10° SSW 21:56:36 48° WNW 22:00:23 10° N
Alouette 2 Rocket 4.3 21:55:16 10° NNW 21:58:58 51° W 22:03:51 10° S
COSMOS 2428 2.8 21:59:05 10° S 22:04:39 61° ESE 22:10:15 10° NE
Cosmos 1844 4.4 22:01:02 10° NW 22:06:34 48° WSW 22:11:25 13° S
Cosmos 1869 3.8 22:03:05 10° N 22:06:57 46° ENE 22:09:22 21° SE
Cosmos 2322 3.8 22:02:47 10° SSW 22:08:31 82° WNW 22:14:17 10° NNE
NOSS 0 Rocket 4.5 22:07:31 15° S 22:12:10 39° ESE 22:17:50 10° NE
NOSS 3-4 (A) 4.3 22:05:56 10° NW 22:12:38 55° NE 22:19:47 11° ESE
NOSS 3-4 (C) 4.3 22:06:03 10° NW 22:12:44 54° NE 22:19:55 11° ESE
Meteor 1-27 4.3 22:07:38 10° NNW 22:13:23 83° W 22:18:05 16° S
CARTOSAT-1 4.1 22:10:04 14° S 22:13:39 55° W 22:17:55 10° NNW
Terra 1.8 22:10:33 18° SSE 22:14:10 87° WSW 22:18:58 10° NNW
Cosmos 2237 Rocket 3.0 22:14:58 19° SSE 22:18:12 32° ESE 22:23:13 10° NE
BREEZE-M DEB 4.0 22:15:23 10° WNW 22:19:05 74° SSW 22:33:07 10° ESE
Cosmos 2219 Rocket 2.1 22:14:50 10° SSW 22:20:26 86° ESE 22:26:05 10° NNE
Cosmos 2344 4.3 22:16:02 17° SSE 22:20:33 30° ESE 22:27:04 10° NE
Atlas Centaur 2 4.1 22:16:57 10° SW 22:20:36 15° S 22:21:21 15° S
Cosmos 1538 Rocket 4.0 22:16:23 10° SSW 22:21:46 87° ESE 22:27:08 10° NNE
Cosmos 2360 Rocket 3.6 22:17:27 10° WSW 22:22:43 40° NW 22:28:04 10° NNE
NOSS 3-3 (A) 3.9 22:17:01 10° SSW 22:22:52 76° SE 22:29:31 10° NE
NOSS 3-3 (C) 3.9 22:17:07 10° SSW 22:22:58 75° SE 22:29:38 10° NE
Cosmos 1315 Rocket 3.3 22:23:07 10° NNW 22:27:09 58° W 22:29:55 19° S
Cosmos 2333 Rocket 2.4 22:24:52 10° SSW 22:30:34 77° WNW 22:36:20 10° NNE
Thor Agena Rocket 4.4 22:26:21 10° NNE 22:30:57 33° E 22:33:18 22° SE
Meteor 2-2 Rocket 4.3 22:26:09 10° N 22:32:02 84° ENE 22:35:55 22° SSE
Cosmos 2184 Rocket 4.0 22:27:10 17° S 22:32:10 74° E 22:38:28 10° NNE
Cosmos 2221 2.5 22:32:23 10° N 22:36:48 82° W 22:39:20 25° S
BREEZE-M DEB (TANK) 2.0 22:34:13 10° W 22:39:26 76° N 22:41:22 17° E
ATLAS 2AS CENTAUR R/B 3.1 22:33:03 10° NW 22:40:43 68° NE 22:46:24 17° SE
ERS-1 Rocket 4.2 22:36:51 12° SSW 22:41:04 34° W 22:45:40 10° NNW
Cosmos 1892 2.7 22:41:59 30° SSE 22:43:40 63° E 22:47:26 10° NNE
EO 1 Del DPAF 4.2 22:40:41 10° NNE 22:44:03 30° E 22:44:59 27° SE
Aureole 2 Rocket 4.1 22:45:56 10° NNE 22:47:58 18° ENE 22:48:59 15° E
Cosmos 1606 4.5 22:47:36 10° NNE 22:50:42 22° ENE 22:52:19 17° ESE
Cosmos 2112 Rocket 4.4 22:48:23 25° SSE 22:51:12 49° ESE 22:56:22 10° NNE
Cosmos 2278 Rocket 2.2 22:45:58 10° NNW 22:51:40 76° WSW 22:54:59 26° SSE
USA 215 3.3 22:45:21 10° NE 22:51:58 87° NNW 22:58:31 10° WSW
ATLAS 5 CENTAUR R/B 3.7 22:51:11 10° W 22:55:02 31° NNW 22:59:24 10° NNE
Cosmos 158 Rocket 4.0 22:52:56 27° S 22:55:23 54° ESE 23:00:10 10° NNE
SPOT 5 4.4 22:53:10 12° SSW 22:57:05 28° W 23:01:15 10° NW
Lacrosse 5 rocket 3.6 22:54:42 10° NW 22:58:10 25° N 23:01:27 10° ENE
Cosmos 1943 Rocket 3.9 22:54:34 10° N 22:59:16 26° NE 23:03:56 10° E
Spot 4 3.9 22:59:07 28° SSE 23:01:35 71° ENE 23:06:21 10° N
SL-16 R/B 3.3 23:00:46 23° SE 23:02:36 28° ESE 23:07:20 10° NE
Cosmos 2058 2.9 23:01:10 27° SSW 23:03:23 79° W 23:07:33 10° N
Cosmos 1408 2.5 23:03:24 41° SSE 23:04:29 68° E 23:08:03 10° NNE
Cosmos 2056 Rocket 3.8 22:59:30 10° NNW 23:04:55 65° ENE 23:07:58 26° SE
Nadezhda 3 Rocket 4.1 23:03:38 10° N 23:10:02 81° W 23:13:54 25° S
Cosmos 2154 Rocket 4.0 23:07:50 22° S 23:12:02 87° W 23:18:18 10° N
Cosmos 2341 Rocket 4.2 23:11:46 27° SSE 23:15:10 59° E 23:21:16 10° NNE
Cosmos 1076 Rocket 3.7 23:12:54 26° SSW 23:15:12 68° W 23:19:29 10° N
In-Cosmos 22 Rocket 4.4 23:11:39 19° SSW 23:15:29 65° WNW 23:20:48 10° N
Cosmos 1680 Rocket 3.5 23:15:58 22° SSW 23:19:31 87° WNW 23:24:54 10° NNE
USA 267 3.4 23:21:25 26° SSE 23:25:09 57° SW 23:31:37 10° WNW
Cosmos 2151 3.0 23:23:52 38° SSE 23:25:24 69° E 23:29:40 10° NNE
Helios 1A 4.3 23:24:53 21° ESE 23:26:49 31° ENE 23:30:30 10° N
CZ-4C R/B 4.1 23:25:29 10° NW 23:31:45 38° NNE 23:39:01 10° E
Cosmos 1452 Rocket 4.4 23:26:51 10° NNW 23:31:53 42° ENE 23:35:06 20° ESE
BREEZE-M DEB (TANK) 3.7 23:29:08 10° W 23:32:45 21° SW 23:32:45 21° SW
COSMOS 2455 3.7 23:27:29 10° NNW 23:33:19 46° NE 23:38:24 13° ESE
Cosmos 1825 2.1 23:32:56 43° SSW 23:34:06 81° W 23:37:54 10° N
SL-8 Rocket 4.1 23:30:59 29° SSE 23:34:06 61° E 23:40:10 10° NNE
ATLAS CENTAUR R/B 3.4 23:32:43 10° W 23:34:12 12° WSW 23:34:36 12° WSW
Cosmos 1340 3.7 23:34:23 30° ESE 23:34:57 31° E 23:38:19 10° NNE
Cosmos 1933 3.7 23:33:02 10° N 23:36:59 52° ENE 23:38:13 37° SE
ALOS 2 2.6 23:35:27 38° SSE 23:37:06 79° ENE 23:41:31 10° NNW
Cosmos 1408 Rocket 4.4 23:35:56 30° SE 23:37:10 36° E 23:41:13 10° NNE
Cosmos 1151 Rocket 3.2 23:34:14 10° N 23:38:33 60° ENE 23:40:03 37° SE
EO 1 Delta rocket 4.4 23:34:37 10° N 23:39:38 73° WNW 23:43:17 24° SSW
Cosmos 1980 4.2 23:38:42 13° SW 23:43:43 59° WNW 23:49:20 10° NNE
APEX 3.7 23:41:26 10° N 23:43:56 31° NE 23:44:22 29° ENE
IRIDIUM 103 4.5 23:41:42 33° SSE 23:43:57 64° E 23:49:07 10° N
Cosmos 2369 Rocket 3.5 23:38:57 10° NNW 23:44:04 35° NE 23:48:49 12° ESE
Cosmos 44 3.2 23:43:37 42° SSE 23:44:38 53° ESE 23:48:57 10° NE
GP-B 3.1 23:42:50 10° N 23:47:18 78° E 23:48:50 41° S
SL-4 R/B 2.6 23:48:59 25° NNE 23:48:59 25° NNE 23:50:09 10° N
Cosmos 371 Rocket 3.4 23:43:23 10° NNW 23:48:16 70° ENE 23:50:25 33° SE
Terra 4.3 23:50:58 10° WSW 23:52:37 12° W 23:54:17 10° WNW
CREW DRAGON DEMO-1 DEB 3.0 23:54:48 58° E 23:54:48 58° E 23:57:22 10° ENE
Helios 1B rocket 4.3 23:51:44 10° NE 23:54:31 17° E 23:55:23 16° ESE
Genesis I 3.7 23:53:26 22° WSW 23:55:46 58° NW 23:59:38 10° NNE
